Location: Anan
(43.3550°N, 0.8171°E)
Time: 20:46:44
(UTC+00:00)

Cosmos 1743 - Pass Details

Date: 14 May 2026
Orbit: 368 x 373 km, 82.5° (Epoch: 7 June)

Event Time Altitude Azimuth Distance (km) Brightness Sun altitude
Rises 20:42:54 0° 340° (NNW) 2,247 7.2 -14.1°
Reaches altitude 10° 20:45:04 10° 327° (NNW) 1,393 6.2 -14.4°
Maximum altitude 20:47:38 26° 268° (W) 789 4.1 -14.7°
Drops below altitude 10° 20:50:13 10° 209° (SSW) 1,390 4.7 -15.0°
Enters shadow 20:50:37 - 206° (SSW) 1,539 4.9 -15.1°
